Location: Unspecified
(0.0000°N, 0.0000°E)
Time: 18:16:43
(UTC+00:00)

Vanguard 3 - Pass Details

Date: 30 September 2023
Orbit: 507 x 3241 km, 33.3° (Epoch: 29 November)

Event Time Altitude Azimuth Distance (km) Brightness Sun altitude
Rises 14:55:33 0° 242° (WSW) 7,080 12.6 43.6°
Reaches altitude 10° 15:00:18 10° 245° (WSW) 6,152 12.6 42.4°
Maximum altitude 15:19:51 62° 322° (NW) 3,180 11.1 37.5°
Drops below altitude 10° 15:34:13 10° 40° (NE) 4,668 10.8 33.9°
Sets 15:37:18 0° 44° (NE) 5,357 11.0 33.1°
